Regional Weather Roundup
Issued by NWS Wilmington, NC

Home | Current Version | Previous Version | Text Only | Print | Product List | Glossary On
Versions: 1 2 3 4 5 6 7 8 9 10 11 12 13 14 15 16 17 18 19 20 21 22 23 24 25 26 27 28 29 30 31 32 33 34 35 36 37 38 39 40 41 42 43 44 45 46 47 48 49 50
000
ASUS42 KILM 300910
RWRILM
RWRILM
REGIONAL HOURLY WEATHER ROUNDUP
NATIONAL WEATHER SERVICE WILMINGTON NC
400 AM EST FRI JAN 30 2015

NOTE: "FAIR" INDICATES FEW OR NO CLOUDS BELOW 12,000 FEET WITH NO
SIGNIFICANT WEATHER AND/OR OBSTRUCTIONS TO VISIBILITY.

...............WFO WILMINGTON COUNTY WARNING AREA...............

......COASTAL NC AND SC COUNTIES......

CITY           SKY/WX    TMP DP  RH WIND       PRES   REMARKS
WILMINGTON     CLOUDY    50  44  80 SW8       29.99F
SOUTHPORT      CLOUDY    52  48  86 W9        30.01F
N MYRTLE BEACH CLOUDY    52  44  74 SW12      30.00F
MYRTLE BEACH   CLOUDY    54  41  62 SW7       30.03F

......INLAND NC AND SC COUNTIES.......

CITY           SKY/WX    TMP DP  RH WIND       PRES   REMARKS
LUMBERTON      MOCLDY    47  40  76 S8        29.97F
ELIZABETHTOWN  MOCLDY    49  41  75 SW8       29.98F
WHITEVILLE     MOCLDY    49  42  77 SW5       29.99F
FLORENCE       MOCLDY    50  39  66 SW10      29.98F
DARLINGTON     CLOUDY    48  36  61 SW8       29.99F

....................REST OF NORTH CAROLINA......................

.........EASTERN NC.........

CITY           SKY/WX    TMP DP  RH WIND       PRES   REMARKS
CAPE HATTERAS  CLOUDY    50  45  83 SW10      29.97F
JACKSONVILLE   MOCLDY    46  37  71 SW9       29.98F
MOREHEAD CITY  CLOUDY    51  47  86 SW10      29.99F
KENANSVILLE    CLEAR     42  39  86 CALM      29.97F
NEW BERN       CLOUDY    51  40  65 SW10      29.97F
ELIZABETH CITY CLOUDY    44  36  73 SW10      29.94F

.........CENTRAL NC.........

CITY           SKY/WX    TMP DP  RH WIND       PRES   REMARKS
RALEIGH DURHAM CLOUDY    38  27  64 SW6       29.96F WCI  33
ROCKY MOUNT    CLOUDY    42  34  73 SW7       29.95F
ROANOKE RAPIDS NOT AVBL
FAYETTEVILLE   CLOUDY    48  38  68 SW9       29.96F
HOFFMAN        CLOUDY    43  34  71 NW3       29.99S

.........WESTERN NC.........

CITY           SKY/WX    TMP DP  RH WIND       PRES   REMARKS
CHARLOTTE      CLOUDY    45  27  49 NW5       29.99F
GREENSBORO     CLOUDY    42  28  57 NW9       29.96F
HICKORY        NOT AVBL
BOONE          NOT AVBL
ASHEVILLE      NOT AVBL

.....................REST OF SOUTH CAROLINA.....................

.........EASTERN SC.........

CITY           SKY/WX    TMP DP  RH WIND       PRES   REMARKS
CHARLESTON     CLOUDY    54  42  64 SW12G20   30.05F
BEAUFORT MCAS  CLOUDY    52  41  66 SW9       30.06F
HILTON HEAD    CLOUDY    54  41  62 S8        30.08F

.........CENTRAL SC.........

CITY           SKY/WX    TMP DP  RH WIND       PRES   REMARKS
COLUMBIA       MOCLDY    52  35  52 W8        30.00F
ORANGEBURG     CLOUDY    52  37  56 SW10      30.02F
SUMTER SHAW    CLOUDY    52  37  57 SW10      29.97F

.........WESTERN SC.........

CITY           SKY/WX    TMP DP  RH WIND       PRES   REMARKS
GREENVILLE     NOT AVBL
ROCK HILL      MOCLDY    44  29  55 CALM      30.00S
ANDERSON       CLEAR     43  34  70 W7        30.04S
CLEMSON        NOT AVBL
GREENWOOD      MOCLDY    49  34  56 W9        30.04R


...................COASTAL AND OFFSHORE REPORTS..................

................LOCAL PIERS AND NC RESERVE................


STATION/POSITION TIME  SKY/WX   TEMP    WIND        PRES    VSBY
                                AIR SEA DIR/SP/G
                 (UTC)          (F)     (DEG/KT/KT) (MB)    (MI)
JOHNY MRCER PIER 0900            52 54  230/  9/ 12 1015.0F
NC RESRV MASNBRO 0800            52     230/  4     1018.0S
OCEAN CREST PIER 0900            53 51  220/ 15/ 17 1015.3F
SPRINGMAID  PIER 0900            51 50  190/ 10/ 12 1016.4F


................COASTAL AND OFFSHORE BUOYS................


STATION/POSITION TIME  SKY/WX   TEMP    WIND        PRES    VSBY
                                AIR SEA DIR/SP/G
                 (UTC)          (F)     (DEG/KT/KT) (MB)    (MI)
DIMNDSHOAL 41025 0900            59 70  260/ 25/ 31 1014.4F
WVE H/P(F/S)=  7/ 6 WND WVE H/P(F/S)=  7/ 6 SWL H/P/D(F/S/D)=  2/ 40/ 9

CAPE LOOKOUT     0800            54     240/ 12/ 17 1016.3F
ONSLOW BAY 41036 NOT AVBL
5 WRITEBCH 41038 0800            53 52  230/ 14/ 16 1016.3F
MASONBORO  41110 0900               52                N/A
WVE H/P(F/S)=  3/ 5 WND WVE H/P(F/S)=  3/ 5

WILM HARBR 41108 0900               55                N/A
WVE H/P(F/S)=  5/ 6 WND WVE H/P(F/S)=  5/ 6

27WRITEBCH 41037 NOT AVBL
FRYING PAN 41013 0900            62 66  230/ 25/ 29 1016.5F
WVE H/P(F/S)=  7/ 6 WND WVE H/P(F/S)=  7/ 6

SUNST NRSH 41024 0800            52     230/ 14/ 16   N/A
CAPRS NRSH 41029 0800            54     240/ 16/ 17   N/A
EDISTO     41004 0900            63 68  240/ 19/ 23 1017.2F
WVE H/P(F/S)=  6/ 6 WND WVE H/P(F/S)=  5/ 6 SWL H/P/D(F/S/D)=  2/11



..........OFFSHORE BUOYS BEYOND 100 NM OFFSHORE...........
.....IN A TRIANGLE---HAT TO BERMUDA TO BAHAMAS TO HAT.....


STATION/POSITION TIME  SKY/WX   TEMP    WIND        PRES    VSBY
                                AIR SEA DIR/SP/G
                 (UTC)          (F)     (DEG/KT/KT) (MB)    (MI)
150E HAT   41001 NOT AVBL
W BERMUDA  41048 0839            62 71  280/ 10/ 14 1019.2F
WVE H/P(F/S)=  6/ 8 WND WVE H/P(F/S)=  2/ 5 SWL H/P/D(F/S/D)=  5/350/ 8

ATLANTIC S 41049 0802            68 74  340/ 10/ 16 1017.5F
WVE H/P(F/S)=  8/ 9 WND WVE H/P(F/S)=  3/ 5 SWL H/P/D(F/S/D)=  8/320/ 9

E BAHAMAS  41046 0753            71 78   30/ 10/ 16 1017.9
WVE H/P(F/S)=  7/11 WND WVE H/P(F/S)=  3/ 5 SWL H/P/D(F/S/D)=  7/360/11

NE BAHAMAS 41047 0751            65 76  360/  6/ 10 1020.3
WVE H/P(F/S)=  8/ 9 WND WVE H/P(F/S)=  2/ 3 SWL H/P/D(F/S/D)=  8/ 9

120E CANVRL41010 0900            67 75  220/ 12/ 14 1020.9F
WVE H/P(F/S)=  5/11 WND WVE H/P(F/S)=  2/ 5 SWL H/P/D(F/S/D)=  5/ 40/11


END



USA.gov is the U.S. government's official web portal to all federal, state and local government web resources and services.